DW5684 Weather Reports


time (UTC)temp
C
wind
direction
speed
KPH
gust
KPH
rain 1hr
cm
rain 24hr
cm
rain mn
cm
humidity
%
barometer
mb
20260906175325 38 105 4.8 12.9 0.00 0.00 0.00 40 1014.7
20260906174820 37 349 3.2 8.0 0.00 0.00 0.00 38 1014.7
20260906174315 38 322 4.8 8.0 0.00 0.00 0.00 37 1015.0
20260906173831 37 96 3.2 8.0 0.00 0.00 0.00 40 1015.0
20260906173309 37 317 1.6 6.4 0.00 0.00 0.00 42 1015.1
20260906172844 37 284 1.6 4.8 0.00 0.00 0.00 42 1015.2
20260906172339 37 217 1.6 8.0 0.00 0.00 0.00 40 1015.3
20260906171811 38 153 3.2 8.0 0.00 0.00 0.00 39 1015.4
20260906171326 38 229 1.6 8.0 0.00 0.00 0.00 40 1015.5
20260906170821 38 330 1.6 8.0 0.00 0.00 0.00 42 1015.5
20260906170316 37 69 1.6 8.0 0.00 0.00 0.00 41 1015.6
20260906165811 37 338 3.2 8.0 0.00 0.00 0.00 42 1015.6
20260906165311 37 358 4.8 8.0 0.00 0.00 0.00 42 1015.6
20260906164826 37 203 0.0 6.4 0.00 0.00 0.00 43 1015.8
20260906164321 37 312 0.0 8.0 0.00 0.00 0.00 41 1015.8
20260906163815 37 148 1.6 8.0 0.00 0.00 0.00 44 1015.9
20260906163309 37 347 1.6 6.4 0.00 0.00 0.00 42 1015.8
20260906162822 37 86 3.2 6.4 0.00 0.00 0.00 43 1015.9
20260906162315 37 102 1.6 6.4 0.00 0.00 0.00 44 1016.0
20260906161809 36 217 0.0 6.4 0.00 0.00 0.00 45 1016.0
20260906161309 36 320 1.6 4.8 0.00 0.00 0.00 45 1016.0
20260906160824 36 281 0.0 3.2 0.00 0.00 0.00 44 1016.1
20260906160318 36 1 1.6 3.2 0.00 0.00 0.00 46 1016.1
20260906155833 36 248 0.0 3.2 0.00 0.00 0.00 47 1016.1
20260906155327 36 145 0.0 4.8 0.00 0.00 0.00 49 1016.1
20260906154822 35 301 1.6 4.8 0.00 0.00 0.00 48 1016.1
20260906154319 35 303 0.0 3.2 0.00 0.00 0.00 49 1016.0
20260906153813 35 125 1.6 4.8 0.00 0.00 0.00 48 1015.9
20260906153329 35 67 1.6 4.8 0.00 0.00 0.00 48 1015.9
20260906152843 35 257 0.0 4.8 0.00 0.00 0.00 49 1015.9
20260906152321 35 115 1.6 4.8 0.00 0.00 0.00 49 1015.9
20260906151817 35 108 0.0 1.6 0.00 0.00 0.00 51 1015.9
20260906151312 34 7 0.0 1.6 0.00 0.00 0.00 52 1015.8
20260906150826 34 297 0.0 0.0 0.00 0.00 0.00 50 1015.9
20260906150322 35 276 0.0 4.8 0.00 0.00 0.00 49 1015.8
20260906145836 34 171 0.0 4.8 0.00 0.00 0.00 51 1015.9
20260906145310 33 217 0.0 0.0 0.00 0.00 0.00 53 1015.9
20260906144825 33 327 0.0 0.0 0.00 0.00 0.00 52 1015.9
20260906144323 33 77 0.0 0.0 0.00 0.00 0.00 52 1015.9
20260906143817 33 232 0.0 0.0 0.00 0.00 0.00 53 1015.9
20260906143313 33 181 0.0 1.6 0.00 0.00 0.00 55 1015.8
20260906142808 33 155 0.0 0.0 0.00 0.00 0.00 56 1015.8
20260906142343 33 157 0.0 0.0 0.00 0.00 0.00 55 1015.8
20260906141837 33 165 0.0 0.0 0.00 0.00 0.00 55 1015.7
20260906141312 33 165 0.0 0.0 0.00 0.00 0.00 54 1015.6
20260906140827 33 161 0.0 0.0 0.00 0.00 0.00 57 1015.7
20260906140322 32 162 0.0 0.0 0.00 0.00 0.00 58 1015.8
20260906135821 31 53 0.0 0.0 0.00 0.00 0.00 59 1015.8
20260906135314 31 53 0.0 0.0 0.00 0.00 0.00 62 1015.8
20260906134848 30 276 0.0 0.0 0.00 0.00 0.00 63 1015.8
20260906134322 30 115 0.0 0.0 0.00 0.00 0.00 65 1015.6
20260906133816 29 115 0.0 0.0 0.00 0.00 0.00 68 1015.6
20260906133311 29 155 0.0 0.0 0.00 0.00 0.00 67 1015.8
20260906132826 28 148 0.0 0.0 0.00 0.00 0.00 69 1015.6
20260906132320 28 79 0.0 0.0 0.00 0.00 0.00 70 1015.6
20260906131819 28 106 0.0 0.0 0.00 0.00 0.00 70 1015.5
20260906131314 27 110 0.0 0.0 0.00 0.00 0.00 74 1015.4
20260906130809 27 110 0.0 0.0 0.00 0.00 0.00 73 1015.4
20260906130323 26 195 0.0 0.0 0.00 0.00 0.00 77 1015.3
20260906125837 25 195 0.0 0.0 0.00 0.00 0.00 80 1015.1
20260906125310 24 269 0.0 0.0 0.00 0.00 0.00 83 1015.2
20260906124824 23 269 0.0 0.0 0.00 0.00 0.00 86 1015.1
20260906124318 22 269 0.0 0.0 0.00 0.00 0.00 87 1015.1
20260906123817 22 269 0.0 0.0 0.00 0.00 0.00 89 1015.0
20260906123310 22 269 0.0 0.0 0.00 0.00 0.00 89 1015.0
20260906122824 22 269 0.0 0.0 0.00 0.00 0.00 89 1015.0
20260906122318 21 269 0.0 0.0 0.00 0.00 0.00 89 1014.9
20260906121813 21 269 0.0 0.0 0.00 0.00 0.00 89 1014.9
20260906121308 21 269 0.0 0.0 0.00 0.00 0.00 89 1014.9
20260906120823 21 269 0.0 0.0 0.00 0.00 0.00 89 1014.9
20260906120318 21 269 0.0 0.0 0.00 0.00 0.00 90 1014.8
20260906115817 21 269 0.0 0.0 0.00 0.00 0.00 90 1014.8
20260906115311 21 269 0.0 0.0 0.00 0.00 0.00 90 1014.6
20260906114826 21 269 0.0 0.0 0.00 0.00 0.00 89 1014.7
20260906114319 21 269 0.0 0.0 0.00 0.00 0.00 89 1014.5
20260906113832 21 269 0.0 0.0 0.00 0.00 0.00 88 1014.5
20260906113346 21 269 0.0 0.0 0.00 0.00 0.00 88 1014.5
20260906112821 21 269 0.0 0.0 0.00 0.00 0.00 88 1014.5
20260906112338 21 269 0.0 0.0 0.00 0.00 0.00 88 1014.4
20260906111813 21 269 0.0 0.0 0.00 0.00 0.00 87 1014.4
20260906111312 21 269 0.0 0.0 0.00 0.00 0.00 88 1014.4
20260906110826 22 269 0.0 0.0 0.00 0.00 0.00 87 1014.3
20260906110321 22 269 0.0 0.0 0.00 0.00 0.00 87 1014.4
20260906105835 22 269 0.0 0.0 0.00 0.00 0.00 87 1014.3
20260906105308 22 269 0.0 0.0 0.00 0.00 0.00 86 1014.3
20260906104823 22 269 0.0 0.0 0.00 0.00 0.00 86 1014.3
20260906104319 22 269 0.0 0.0 0.00 0.00 0.00 86 1014.2
20260906103834 22 269 0.0 0.0 0.00 0.00 0.00 86 1014.3
20260906103308 22 269 0.0 0.0 0.00 0.00 0.00 86 1014.2
20260906102843 22 269 0.0 0.0 0.00 0.00 0.00 86 1014.2
20260906102320 22 269 0.0 0.0 0.00 0.00 0.00 86 1014.2
20260906101815 22 269 0.0 0.0 0.00 0.00 0.00 86 1014.1
20260906101309 22 269 0.0 0.0 0.00 0.00 0.00 85 1014.1
20260906100823 22 269 0.0 0.0 0.00 0.00 0.00 85 1014.1
20260906100318 22 269 0.0 0.0 0.00 0.00 0.00 85 1014.0
20260906095813 22 269 0.0 0.0 0.00 0.00 0.00 85 1014.0
20260906095308 22 269 0.0 0.0 0.00 0.00 0.00 85 1014.0
20260906094822 22 269 0.0 0.0 0.00 0.00 0.00 85 1013.9
20260906094321 22 269 0.0 0.0 0.00 0.00 0.00 85 1013.9
20260906093816 22 269 0.0 0.0 0.00 0.00 0.00 85 1013.9
20260906093310 22 269 0.0 0.0 0.00 0.00 0.00 85 1013.9
20260906092825 22 269 0.0 0.0 0.00 0.00 0.00 85 1013.9
20260906092340 22 269 0.0 0.0 0.00 0.00 0.00 85 1013.9
20260906091814 22 269 0.0 0.0 0.00 0.00 0.00 85 1013.9
20260906091309 22 269 0.0 0.0 0.00 0.00 0.00 85 1014.0
20260906090844 22 269 0.0 0.0 0.00 0.00 0.00 85 1014.1
20260906090318 22 269 0.0 0.0 0.00 0.00 0.00 85 1014.0
20260906085837 22 269 0.0 0.0 0.00 0.00 0.00 85 1013.9
20260906085309 22 269 0.0 0.0 0.00 0.00 0.00 84 1014.0
20260906084845 22 269 0.0 0.0 0.00 0.00 0.00 84 1013.9
20260906084318 23 269 0.0 0.0 0.00 0.00 0.00 84 1014.0
20260906083813 23 269 0.0 0.0 0.00 0.00 0.00 83 1014.0
20260906083308 23 269 0.0 0.0 0.00 0.00 0.00 83 1013.9
20260906082823 23 269 0.0 0.0 0.00 0.00 0.00 82 1014.0
20260906082338 23 269 0.0 0.0 0.00 0.00 0.00 82 1014.0
20260906081811 23 269 0.0 0.0 0.00 0.00 0.00 82 1013.9
20260906081310 23 269 0.0 0.0 0.00 0.00 0.00 82 1013.9
20260906080825 23 269 0.0 0.0 0.00 0.00 0.00 82 1013.9
20260906080320 23 269 0.0 0.0 0.00 0.00 0.00 82 1013.9
20260906075814 23 269 0.0 0.0 0.00 0.00 0.00 81 1013.9
20260906075309 23 269 0.0 0.0 0.00 0.00 0.00 81 1013.8
20260906074823 23 269 0.0 0.0 0.00 0.00 0.00 81 1013.8
20260906074318 23 269 0.0 0.0 0.00 0.00 0.00 81 1013.8
20260906073813 23 269 0.0 0.0 0.00 0.00 0.00 81 1013.8
20260906073312 23 269 0.0 0.0 0.00 0.00 0.00 81 1013.9
20260906072826 23 269 0.0 0.0 0.00 0.00 0.00 80 1013.9
20260906072321 23 269 0.0 0.0 0.00 0.00 0.00 80 1014.0
20260906071816 23 269 0.0 0.0 0.00 0.00 0.00 80 1014.0
20260906071311 23 269 0.0 0.0 0.00 0.00 0.00 81 1014.0
20260906070826 23 269 0.0 0.0 0.00 0.00 0.00 80 1014.1
20260906070321 23 269 0.0 0.0 0.00 0.00 0.00 80 1014.1
20260906065835 23 269 0.0 0.0 0.00 0.00 0.00 80 1014.1
20260906065313 23 269 0.0 0.0 0.00 0.00 0.00 80 1014.1
20260906064809 24 269 0.0 0.0 0.00 0.00 0.00 79 1014.1
20260906064324 23 269 0.0 0.0 0.00 0.00 0.00 79 1014.0
20260906063819 23 269 0.0 0.0 0.00 0.00 0.00 79 1014.0
20260906063314 24 270 0.0 0.0 0.00 0.00 0.00 78 1014.1
20260906062829 24 270 0.0 0.0 0.00 0.00 0.00 78 1014.1
20260906062323 24 270 0.0 0.0 0.00 0.00 0.00 78 1014.2
20260906061818 24 270 0.0 0.0 0.00 0.00 0.00 78 1014.2
20260906061317 25 269 0.0 0.0 0.00 0.00 0.00 78 1014.3
20260906060812 25 270 0.0 0.0 0.00 0.00 0.00 79 1014.3
20260906060326 25 269 0.0 0.0 0.00 0.00 0.00 79 1014.3
20260906055820 25 269 0.0 0.0 0.00 0.00 0.00 79 1014.3
20260906055315 25 267 0.0 0.0 0.00 0.00 0.00 77 1014.3
20260906054810 25 267 0.0 0.0 0.00 0.00 0.00 78 1014.3
20260906054325 25 267 0.0 0.0 0.00 0.00 0.00 77 1014.2
20260906053841 25 267 0.0 0.0 0.00 0.00 0.00 77 1014.3
20260906053313 25 267 0.0 0.0 0.00 0.00 0.00 75 1014.4
20260906052811 25 267 0.0 0.0 0.00 0.00 0.00 75 1014.4
20260906052325 25 267 0.0 0.0 0.00 0.00 0.00 75 1014.4
20260906051819 25 265 0.0 0.0 0.00 0.00 0.00 76 1014.3
20260906051314 25 265 0.0 0.0 0.00 0.00 0.00 73 1014.3
20260906050809 25 265 0.0 0.0 0.00 0.00 0.00 73 1014.1
20260906050323 25 265 0.0 0.0 0.00 0.00 0.00 73 1014.0
20260906045838 25 265 0.0 0.0 0.00 0.00 0.00 72 1014.0
20260906045431 26 265 0.0 0.0 0.00 0.00 0.00 72 1014.1
20260906044840 26 265 0.0 0.0 0.00 0.00 0.00 72 1014.0
20260906044314 26 265 0.0 0.0 0.00 0.00 0.00 73 1014.1
20260906043813 26 265 0.0 0.0 0.00 0.00 0.00 73 1014.1
20260906043327 26 265 0.0 0.0 0.00 0.00 0.00 72 1014.1
20260906042842 25 265 0.0 0.0 0.00 0.00 0.00 72 1014.1
20260906042313 26 265 0.0 0.0 0.00 0.00 0.00 72 1014.1
20260906041827 26 265 0.0 0.0 0.00 0.00 0.00 72 1014.0
20260906041321 26 265 0.0 0.0 0.00 0.00 0.00 72 1014.1
20260906040813 26 265 0.0 0.0 0.00 0.00 0.00 72 1014.1
20260906040327 26 265 0.0 0.0 0.00 0.00 0.00 72 1014.1
20260906035842 26 265 0.0 0.0 0.00 0.00 0.00 71 1014.0
20260906035315 26 265 0.0 0.0 0.00 0.00 0.00 71 1013.9
20260906034810 26 265 0.0 0.0 0.00 0.00 0.00 70 1013.9
20260906034327 26 265 0.0 0.0 0.00 0.00 0.00 70 1013.8
20260906033822 26 265 0.0 0.0 0.00 0.00 0.00 70 1013.8
20260906033317 26 265 0.0 0.0 0.00 0.00 0.00 70 1013.8
20260906032810 26 265 0.0 0.0 0.00 0.00 0.00 70 1013.8
20260906032325 26 265 0.0 0.0 0.00 0.00 0.00 70 1013.7
20260906031820 26 265 0.0 0.0 0.00 0.00 0.00 70 1013.7
20260906031315 26 265 0.0 0.0 0.00 0.00 0.00 70 1013.8
20260906030813 26 265 0.0 0.0 0.00 0.00 0.00 70 1013.6
20260906030308 26 265 0.0 0.0 0.00 0.00 0.00 70 1013.6
20260906025822 26 265 0.0 0.0 0.00 0.00 0.00 70 1013.5
20260906025316 26 265 0.0 0.0 0.00 0.00 0.00 70 1013.5
20260906024811 26 265 0.0 0.0 0.00 0.00 0.00 71 1013.5
20260906024326 26 265 0.0 0.0 0.00 0.00 0.00 71 1013.4
20260906023820 26 265 0.0 0.0 0.00 0.00 0.00 70 1013.3
20260906023316 26 265 0.0 0.0 0.00 0.00 0.00 70 1013.3
20260906022814 26 266 0.0 0.0 0.00 0.00 0.00 70 1013.2
20260906022330 26 265 0.0 0.0 0.00 0.00 0.00 71 1013.2
20260906021823 27 265 0.0 0.0 0.00 0.00 0.00 70 1013.1
20260906021319 27 265 0.0 0.0 0.00 0.00 0.00 70 1012.9
20260906020814 27 265 0.0 0.0 0.00 0.00 0.00 69 1012.9
20260906020309 27 266 0.0 0.0 0.00 0.00 0.00 68 1012.8
20260906015824 27 265 0.0 0.0 0.00 0.00 0.00 67 1012.8
20260906015319 28 265 0.0 0.0 0.00 0.00 0.00 67 1012.8
20260906014817 28 265 0.0 0.0 0.00 0.00 0.00 69 1012.7
20260906014312 28 265 0.0 0.0 0.00 0.00 0.00 66 1012.6
20260906013808 28 265 0.0 0.0 0.00 0.00 0.00 66 1012.5
20260906013322 28 265 0.0 0.0 0.00 0.00 0.00 64 1012.4
20260906012818 29 265 0.0 0.0 0.00 0.00 0.00 66 1012.4
20260906012313 29 266 0.0 0.0 0.00 0.00 0.00 70 1012.4
20260906011827 29 265 0.0 0.0 0.00 0.00 0.00 66 1012.3
20260906011325 29 265 0.0 0.0 0.00 0.00 0.00 60 1012.2
20260906010820 30 265 0.0 0.0 0.00 0.00 0.00 59 1012.2
20260906010315 30 265 0.0 0.0 0.00 0.00 0.00 59 1012.3
20260906005810 30 265 0.0 0.0 0.00 0.00 0.00 59 1012.2
20260906005345 30 266 0.0 0.0 0.00 0.00 0.00 58 1012.2
20260906004859 31 265 0.0 0.0 0.00 0.00 0.00 56 1012.2
20260906004308 31 266 0.0 0.0 0.00 0.00 0.00 56 1012.3
20260906003822 31 265 0.0 0.0 0.00 0.00 0.00 56 1012.3
20260906003317 32 265 0.0 0.0 0.00 0.00 0.00 55 1012.3
20260906002811 32 265 0.0 0.0 0.00 0.00 0.00 57 1012.4
20260906002309 32 265 0.0 0.0 0.00 0.00 0.00 59 1012.4
20260906001843 33 265 0.0 0.0 0.00 0.00 0.00 57 1012.3
20260906001336 33 265 0.0 0.0 0.00 0.00 0.00 55 1012.3
20260906000810 34 265 0.0 0.0 0.00 0.00 0.00 51 1012.3
20260906000326 35 265 0.0 0.0 0.00 0.00 0.00 48 1012.3
20260905235820 35 265 0.0 1.6 0.00 0.00 0.00 46 1012.4
20260905235315 35 309 0.0 1.6 0.00 0.00 0.00 46 1012.3
20260905234810 35 300 0.0 0.0 0.00 0.00 0.00 45 1012.2
20260905234345 35 356 0.0 0.0 0.00 0.00 0.00 43 1012.2
20260905233818 36 328 0.0 0.0 0.00 0.00 0.00 44 1012.2
20260905233336 36 276 0.0 0.0 0.00 0.00 0.00 42 1012.3
20260905232809 36 265 0.0 0.0 0.00 0.00 0.00 42 1012.2
20260905232324 36 134 0.0 0.0 0.00 0.00 0.00 42 1012.2
20260905231819 36 195 0.0 1.6 0.00 0.00 0.00 41 1012.2
20260905231314 36 273 0.0 1.6 0.00 0.00 0.00 42 1012.0
20260905230829 36 281 0.0 0.0 0.00 0.00 0.00 41 1012.1
20260905230324 36 313 0.0 0.0 0.00 0.00 0.00 40 1012.0
20260905225818 36 322 0.0 0.0 0.00 0.00 0.00 40 1012.0
20260905225317 37 235 0.0 3.2 0.00 0.00 0.00 39 1012.0
20260905224812 37 94 0.0 3.2 0.00 0.00 0.00 39 1012.1
20260905224327 37 213 0.0 3.2 0.00 0.00 0.00 40 1012.0
20260905223823 37 134 0.0 3.2 0.00 0.00 0.00 40 1012.0
20260905223316 37 305 0.0 0.0 0.00 0.00 0.00 39 1012.1
20260905222811 37 184 0.0 1.6 0.00 0.00 0.00 38 1012.1
20260905222325 37 184 0.0 4.8 0.00 0.00 0.00 38 1012.1
20260905221820 37 304 0.0 1.6 0.00 0.00 0.00 38 1012.2
20260905221320 38 322 0.0 4.8 0.00 0.00 0.00 39 1012.3
20260905220815 38 228 0.0 4.8 0.00 0.00 0.00 38 1012.3
20260905220309 38 300 0.0 6.4 0.00 0.00 0.00 36 1012.3
20260905215844 38 209 0.0 6.4 0.00 0.00 0.00 36 1012.4
20260905215317 38 287 0.0 1.6 0.00 0.00 0.00 36 1012.4
20260905214810 38 274 0.0 0.0 0.00 0.00 0.00 38 1012.5
20260905214325 39 289 0.0 0.0 0.00 0.00 0.00 36 1012.5
20260905213820 39 319 0.0 1.6 0.00 0.00 0.00 37 1012.5
20260905213318 39 109 0.0 3.2 0.00 0.00 0.00 39 1012.6
20260905212814 38 77 0.0 4.8 0.00 0.00 0.00 38 1012.6
20260905212309 38 199 0.0 4.8 0.00 0.00 0.00 38 1012.7
20260905211823 39 277 0.0 4.8 0.00 0.00 0.00 37 1012.8
20260905211318 39 212 1.6 4.8 0.00 0.00 0.00 38 1013.0
20260905210813 38 229 0.0 3.2 0.00 0.00 0.00 39 1013.0
20260905210327 37 271 0.0 3.2 0.00 0.00 0.00 40 1013.0
20260905205822 37 283 1.6 3.2 0.00 0.00 0.00 41 1013.1
20260905205319 37 350 0.0 3.2 0.00 0.00 0.00 40 1013.3
20260905204813 37 328 0.0 3.2 0.00 0.00 0.00 42 1013.3
20260905204327 36 143 0.0 0.0 0.00 0.00 0.00 43 1013.4
20260905203821 36 127 0.0 4.8 0.00 0.00 0.00 42 1013.5
20260905203316 37 312 1.6 4.8 0.00 0.00 0.00 41 1013.6
20260905202811 36 129 0.0 1.6 0.00 0.00 0.00 43 1013.6
20260905202346 36 208 0.0 3.2 0.00 0.00 0.00 43 1013.6
20260905201819 37 309 0.0 3.2 0.00 0.00 0.00 42 1013.8
20260905201318 37 239 0.0 8.0 0.00 0.00 0.00 41 1013.8
20260905200813 38 319 4.8 8.0 0.00 0.00 0.00 40 1013.7
20260905200308 38 288 0.0 6.4 0.00 0.00 0.00 40 1013.8
20260905195843 38 3 0.0 9.7 0.00 0.00 0.00 41 1013.9
20260905195317 38 293 0.0 9.7 0.00 0.00 0.00 42 1013.9
20260905194812 38 276 0.0 12.9 0.00 0.00 0.00 43 1013.9
20260905194327 38 292 3.2 12.9 0.00 0.00 0.00 42 1014.1
20260905193822 38 285 0.0 8.0 0.00 0.00 0.00 38 1014.0
20260905193337 38 79 4.8 8.0 0.00 0.00 0.00 38 1014.1
20260905192816 38 207 3.2 4.8 0.00 0.00 0.00 38 1014.2
20260905192311 38 122 0.0 8.0 0.00 0.00 0.00 42 1014.2
20260905191826 37 212 3.2 8.0 0.00 0.00 0.00 41 1014.3
20260905191321 37 354 0.0 4.8 0.00 0.00 0.00 41 1014.4
20260905190816 37 171 0.0 4.8 0.00 0.00 0.00 42 1014.5
20260905190332 36 6 0.0 6.4 0.00 0.00 0.00 43 1014.7
20260905185825 36 306 1.6 6.4 0.00 0.00 0.00 48 1014.8
20260905185321 36 271 0.0 1.6 0.00 0.00 0.00 45 1014.8
20260905184818 36 321 0.0 9.7 0.00 0.00 0.00 45 1014.9
20260905184331 36 315 1.6 9.7 0.00 0.00 0.00 44 1015.0
20260905183825 37 14 3.2 6.4 0.00 0.00 0.00 44 1015.0
20260905183320 37 306 1.6 12.9 0.00 0.00 0.00 44 1015.1
20260905182815 37 349 4.8 12.9 0.00 0.00 0.00 44 1015.1
20260905182310 37 23 1.6 8.0 0.00 0.00 0.00 42 1015.2
20260905181825 37 298 1.6 8.0 0.00 0.00 0.00 43 1015.3
20260905181320 37 91 0.0 8.0 0.00 0.00 0.00 45 1015.3
20260905180819 37 313 0.0 8.0 0.00 0.00 0.00 45 1015.4
20260905180313 37 110 1.6 8.0 0.00 0.00 0.00 44 1015.5
20260905175809 37 317 3.2 8.0 0.00 0.00 0.00 44 1015.5